Location: Cedar Brake
(32.2526°N, 97.8459°W)
Time: 08:50:27
(UTC+00:00)

Cosmos 1703 Rocket - Pass Details

Date: 22 April 2026
Orbit: 597 x 626 km, 82.5° (Epoch: 14 May)

Event Time Altitude Azimuth Distance (km) Brightness Sun altitude
Rises 01:35:08 0° 350° (N) 2,846 7.4 -6.9°
Reaches altitude 10° 01:37:21 10° 348° (NNW) 1,939 6.6 -7.3°
Maximum altitude 01:41:36 69° 265° (W) 640 3.9 -8.1°
Drops below altitude 10° 01:45:50 10° 183° (S) 1,929 5.9 -9.0°
Sets 01:48:02 0° 180° (S) 2,829 6.7 -9.4°
